Weather History for Bozeman, MT

Change the Weather History Date:

Saturday, February 16, 2013

  Actual Average Record
Temperature  
Mean Temperature 30 °F 27 °F  
Max Temperature 45 °F 39 °F 56 °F (1996)
Min Temperature 15 °F 15 °F -38 °F (1956)
Degree Days  
Heating Degree Days 35    
Month to date heating degree days 613  
Since 1 July heating degree days 5248  
Cooling Degree Days 0    
Month to date cooling degree days 0  
Year to date cooling degree days 0  
Moisture  
Dew Point 19 °F    
Average Humidity 64    
Maximum Humidity 88    
Minimum Humidity 40    
Precipitation  
Precipitation 0.00 in 0.02 in 0.62 in (1991)
Month to date precipitation T 0.22  
Year to date precipitation 0.24 0.70  
Snow  
Snow 0.00 in 0.20 in 1.50 in (1942)
Month to date snowfall T 2.6  
Since 1 July snowfall 16.9 20.0  
Snow Depth 4.00 in    
Sea Level Pressure  
Sea Level Pressure 30.14 in    
Wind  
Wind Speed 3 mph (SE)    
Max Wind Speed 12 mph    
Max Gust Speed 13 mph    
Visibility 10 miles    
Events      
T = Trace of Precipitation, MM = Missing Value Source: NWS Daily Summary

Daily Weather History Graph

Daily Weather History Graph

Search for Another Location

Airport:

Trip Planner

Search our weather history database for the weather conditions in past years. The results will help you decide how hot, cold, wet, or windy it might be!

Date:

Astronomy

Feb. 16, 2013 Rise Set
Actual Time 7:24 AM MST 5:53 PM MST
Civil Twilight 6:54 AM MST 6:23 PM MST
Nautical Twilight 6:19 AM MST 6:58 PM MST
Astronomical Twilight 5:45 AM MST 7:33 PM MST
Moon 10:17 AM MST (2/16) 12:18 AM MST (2/16)
Length of Visible Light 11h 29m
Length of Day
10h 28m
Waxing Crescent, 40% of the Moon is Illuminated
Feb 16
Waxing Crescent
Feb 17
First Quarter
Feb 25
Full
Mar 4
Last Quarter
Mar 11
New

Hourly Weather History & Observations

Time (MST) Temp. Windchill Dew Point Humidity Pressure Visibility Wind Dir Wind Speed Gust Speed Precip Events Conditions
12:56 AM 21.9 °F 14.5 °F 16.0 °F 78% 30.36 in 10.0 mi South 5.8 mph - N/A   Clear
1:56 AM 24.1 °F 18.2 °F 16.0 °F 71% 30.34 in 10.0 mi SE 4.6 mph - N/A   Clear
2:56 AM 19.9 °F 11.1 °F 14.0 °F 78% 30.34 in 10.0 mi SSE 6.9 mph - N/A   Clear
3:56 AM 19.4 °F 11.5 °F 14.0 °F 80% 30.20 in 10.0 mi South 5.8 mph - N/A   Clear
4:56 AM 16.0 °F - 12.0 °F 84% 30.32 in 10.0 mi Calm Calm - N/A   Clear
5:56 AM 19.0 °F - 12.9 °F 77% 30.32 in 10.0 mi Calm Calm - N/A   Clear
6:56 AM 19.0 °F 10.0 °F 14.0 °F 81% 30.31 in 10.0 mi South 6.9 mph - N/A   Clear
7:56 AM 16.0 °F - 12.9 °F 88% 30.34 in 10.0 mi Calm Calm - N/A   Clear
8:56 AM 21.9 °F - 16.0 °F 78% 30.30 in 10.0 mi Calm Calm - N/A   Clear
9:56 AM 26.1 °F - 17.1 °F 69% 30.27 in 10.0 mi Calm Calm - N/A   Clear
10:56 AM 30.9 °F - 19.0 °F 61% 30.27 in 10.0 mi Calm Calm - N/A   Clear
11:56 AM 34.0 °F - 21.9 °F 61% 30.21 in 10.0 mi Calm Calm - N/A   Clear
12:56 PM 37.9 °F - 23.0 °F 55% 30.16 in 10.0 mi Calm Calm - N/A   Clear
1:56 PM 41.0 °F - 23.0 °F 49% 30.09 in 10.0 mi Calm Calm - N/A   Clear
2:56 PM 39.0 °F 35.7 °F 24.1 °F 55% 30.08 in 10.0 mi ESE 4.6 mph - N/A   Clear
3:56 PM 44.1 °F - 24.1 °F 45% 30.03 in 10.0 mi Calm Calm - N/A   Clear
4:56 PM 44.1 °F 42.5 °F 21.9 °F 42% 30.01 in 10.0 mi ESE 3.5 mph - N/A   Clear
5:56 PM 39.0 °F 36.8 °F 23.0 °F 53% 29.99 in 10.0 mi South 3.5 mph - N/A   Clear
6:56 PM 36.0 °F 31.1 °F 23.0 °F 59% 29.98 in 10.0 mi SE 5.8 mph - N/A   Clear
7:56 PM 30.9 °F 26.2 °F 21.9 °F 69% 29.99 in 10.0 mi ENE 4.6 mph - N/A   Clear
8:56 PM 32.0 °F 28.7 °F 21.0 °F 64% 29.94 in 10.0 mi Variable 3.5 mph - N/A   Mostly Cloudy
9:56 PM 30.9 °F 23.5 °F 21.0 °F 67% 29.91 in 10.0 mi ENE 8.1 mph - N/A   Overcast
10:56 PM 33.8 °F 27.7 °F 21.2 °F 60% 29.78 in 10.0 mi East 6.9 mph - N/A   Overcast
11:56 PM 32.0 °F 25.6 °F 21.0 °F 64% 29.81 in 10.0 mi East 6.9 mph - N/A   Overcast